Tracking 19638 objects as of 20-May-2019
HD Live streaming from Space Station
objects crossing your sky now

OPS 9333 (IDSCS 18)

Track OPS 9333 (IDSCS 18) now!
OPS 9333 (IDSCS 18) is classified as:


NORAD ID: 2864
Int'l Code: 1967-066C
Perigee: 33,069.6 km
Apogee: 33,572.4 km
Inclination: 3.5 °
Period: 1,311.6 minutes
Semi major axis: 39691 km
RCS: 0.1584 m2 (medium)
Launch date: July 1, 1967
Source: United States (US)
Launch site: AIR FORCE EASTERN TEST RANGE (AFETR)
aabbcc
Your satellite tracking list
Your tracking list is empty




NASA's NSSDC Master Catalog

Two Line Element Set (TLE):
1  2864U 67066C   19140.15041370 -.00000109  00000-0  00000+0 0  9991
2  2864   3.5443 280.7058 0063343   2.7093 287.9193  1.09786349103247
Source of the keplerian elements: AFSPC